Погода в Певеке

Погода в Певеке : погода сейчас, прогноз погоды и архив. Всё, что Вы хотите узнать о погоде в Певеке!

Хотите узнать прогноз погоды в Певеке? Тогда Вам сюда: Погода в Певеке

Поиск расширенной информации на нашем сайте:

Другие новости

Новости СМИ2

Главная страница сайта

Новости сайта

02.10.2013

Напоминаем, что на нашем новом сайте вы можете получить высокодетализированные прогнозы погоды по пунктам России, СНГ и мира (включающие важные для авиации метеовеличины, такие как направление и скорость ветра, видимость, явления погоды, количество и форма облачности, нижняя и верхняя граница облачности), а также ознакомиться с разнообразными материалами по авиационной метеорологии и подборкой полезных ссылок на эту тему.

Сайт Метеоцентр.Азия посвящён разработке технологий оптимизации авиаметеорологического обслуживания, включая проектирование и перспективное создание нескольких автоматизированных авиаметеорологических систем:
- система выпуска высокодетальных прогностических карт явлений погоды для нижнего воздушного пространства по России и ближнему зарубежью;
- система верификации прогнозов TAF (выпускаемых синоптиками официальных АМСГ РФ и ближнего зарубежья) и AUTOTAF (выпускаемых сайтом Метеоцентр.Азия) - выявление ошибок, онлайн-сопоставление с фактической погодой METAR, автоматическое внесение коррективов в прогнозы при резком отклонении фактической погоды от прогноза, подсчёт оправдываемости прогнозов по элементам и в целом;
- система обработки, анализа и отображения авиаметеорологической информации для применения провайдерами метеорологической информации.


Погода в Певеке - сегодня

Время (UTC), дата Ветер
(°,м/с) 
Видим.   Явления Облачность Т
(°С)
Тd
(°С)
f(%) Тe
(°С)
Pmin
(гПа)
dP
(гПа)
Po
(мм)
O2
(г/м3)
Тmin Tmax R s Состояние
почвы
00 22.01.17 260 (З) 1{06}  20000 м  {снег}  3/0 средняя, верхняя 
[Ac lent|Ci fib]
-25.3 -27.9 79 -26  1020.3  -0.6  765  341  -28.6         
03 22.01.17 тихо () {05}  20000 м    1/0 верхняя 
[Ci fib]
-24.9 -27.6 78 -25  1019.7  -0.6  764  341           
06 22.01.17 210 (ЮЗ) 1{02}  20000 м    ясно 
-30.6 -33.8 73 -31  1018.8  -0.9  764  348           
09 22.01.17 030 (СВ) 1{02}  20000 м    ясно 
-28.4 -31.3 76 -29  1017.9  -0.9  763  345    -23.5       
12 22.01.17 040 (СВ) 1{03}  20000 м    ясно 
-26 -28.5 79 -27  1016.1  -1.8  761  341           
15 22.01.17 050 (СВ) 2{04}  20000 м    ясно 
-24.9 -27.7 78 -28  1014.4  -1.7  760  339           
18 22.01.17 060 (СВ) 1{04}  20000 м    ясно 
-25.7 -28.5 77 -26  1013.6  -0.8  760  340           
21 22.01.17 040 (СВ) 3{04}  20000 м    ясно 
-25.8 -28.8 76 -31  1013.8  0.2  760  340  -30      40  неравномерный
мокрый или
старый снег
100% 
00 23.01.17 060 (СВ) 3{05}  20000 м    ясно 
-29.1 -32.1 75 -35  1013.7  -0.1  760  345           
03 23.01.17 070 (В) 2{04}  20000 м    ясно 
-28.3 -31.2 76 -32  1013.1  -0.6  759  343           
06 23.01.17 070 (В) 2{03}  20000 м    ясно 
-30.7 -33.8 74 -34  1012.9  -0.2  759  347           
09 23.01.17 тихо () {03}  20000 м    ясно 
-31.6 -34.8 73 -32  1012.5  -0.4  759  348    -25.8       
12 23.01.17 060 (СВ) 2{04}  20000 м    ясно 
-28.9 -32 74 -33  1012.8  0.3  759  344           
15 23.01.17 060 (СВ) 1{03}  20000 м    ясно 
-32.1 -35.5 72 -33  1012.5  -0.3  759  348           
18 23.01.17 060 (СВ) 1{03}  4000 м  дымка  ясно 
-30.9 -34.2 73 -32  1012.3  -0.2  759  347           
21 23.01.17 тихо () {03}  20000 м    ясно 
-33.7 -37.3 70 -34  1012.5  0.2  759  351  -35.7      40  неравномерный
мокрый или
старый снег
100% 
00 24.01.17 220 (ЮЗ) 1{01}  20000 м    ясно 
-33.5 -36.9 71 -34  1012.5  759  351  -35.8         
03 24.01.17 тихо () {01}  20000 м    ясно 
-34.9 -38.6 69 -35  1012.1  -0.4  758  352           
06 24.01.17 тихо () {02}  20000 м    ясно 
-34.7 -38.4 69 -35  1012.1  758  352           
09 24.01.17 310 (СЗ) 1{01}  20000 м    ясно 
-35 -38.8 68 -36  1012.1  758  353    -32.8       
12 24.01.17 тихо () {01}  20000 м    ясно 
-36 -40 67 -36  1011.5  -0.6  758  354           
15 24.01.17 тихо () {01}  4000 м  дымка  ясно 
-35.8 -39.6 68 -36  1011  -0.5  758  353           
18 24.01.17 040 (СВ) 1{02}  20000 м    ясно 
-35.2 -39 68 -36  1010.8  -0.2  758  352           
21 24.01.17 050 (СВ) 1{02}  20000 м    ясно 
-35.8 -39.6 68 -37  1011.1  0.3  758  353  -37.4      40  неравномерный
мокрый или
старый снег
100% 
00 25.01.17 тихо () {01}  20000 м    ясно 
-36.2 -40.1 67 -36  1011  -0.1  758  354           
Время (UTC), дата Ветер
(°,м/с) 
Видим.   Явления Облачность Т
(°С)
Тd
(°С)
f(%) Тe
(°С)
Pmin
(гПа)
dP
(гПа)
Po
(мм)
O2
(г/м3)
Тmin Tmax R s Состояние
почвы

Для получения пояснительной информации подведите курсор к названию столбца.

ПОГОДА в Певеке - архив

Всё, что Вы хотите узнать о погоде в Певеке - удобно и подробно!

Выберите нужную дату (начиная с 1 января 2015* года) и нажмите кнопку "Найти".
Будут отображены архивные сводки погоды по пункту Певек, начиная с указанной даты.


Отображать данные в формате CSV (для использования в таблицах Excel)


Внимание! Наш архив погоды предназначен исключительно для личного некоммерческого использования в познавательных целях. Если Вам необходимы официальные справки о состоянии погоды (для производственных, юридических, коммерческих и т.п. целей), обращайтесь в органы Росгидромета.

*Примечание: данная дата относится к архиву по метеостанциям СССР (Россия, СНГ, Балтия).
Архив по метеостанциям Зарубежной Европы и Азии (кроме Китая) хранится 10 дней, по другим регионам земного шара (Китай, Африка, Америка, Австралия, Океания) - 1 день.

Певек - район местоположения метеостанции


Название, широта, долгота, высота метеостанции:
Певек 69.7°ш. 170.3°д. 6 м над ур. моря [Российская Федерация]

Дополнительная информация

В oтличие oт бoльшинства пoгoдных сайтoв мы публикуем пoдрoбную метеoинфoрмацию в детальнoм прoфессиoнальнoм фoрмате.

Характеристики температуры и влажнoсти вoздуха измеряются на высoте 2 м в тени вдали oт зданий и деревьев.
Скoрoсть ветра измеряется на высoте 10 м (на урoвне рoста челoвека скoрoсть ветра ниже в 1.5-2 раза). Если метеoстанция нахoдится в гoрoде или в лесу, тo скoрoсть ветра занижена на 2-4 м/с пo сравнению с oткрытым местoм. Скoрoсть ветра над акватoриями крупных рек и oзёр, а также на вершинах хoлмoв на 2-5 м/с выше, чем в oбычных услoвиях.
Атмoсфернoе давление в разных тoчках местнoсти мoжет значительнo oтличаться oт давления на метеoстанции, в зависимoсти oт услoвий рельефа (при пoдъёме на 10 м давление пoнижается примернo на 1 мм рт.ст.).